Find PRAETORIAN SDA_510

NORAD ID: 100068 Int'l Des: 2026-163K Country: USA operational

Aktuelle Ansicht

3D-Globus wird geladen...

About PRAETORIAN SDA_510

PRAETORIAN SDA_510 (NORAD 100068) is a satellite of USA.

Nächste Überflüge

Passes for default location (London). Set your location on the main map for personalized predictions.

Höhenverlauf

Loading altitude history...

Zweizeiliger Elementsatz

1 A0068U 26206.56592975 .00000110 00000-0 85947-4 0 9997
2 A0068 81.4814 301.7544 0013113 187.6239 172.4722 13.85409061 1217
Epoch: 25. Juli 2026 • Age: 12 hours

Aktueller Status

Höhe 971.4 km
Apogäum / Perigäum N/A
Geschwindigkeit 7.36 km/s
Subsatellitenpunkt -59.08°S, 38.24°W
Typ other

Most Searched